Tracking 35237 objects as of 5-Sep-2026
HD Live streaming from Space Station
objects crossing your sky now

COSMOS 224


COSMOS 224 is no longer on orbit


NORAD ID: 3276
Int'l Code: 1968-046A
Launch date: June 4, 1968
Source: Commonwealth of Independent States (former USSR) (CIS)
Launch site: TYURATAM MISSILE AND SPACE COMPLEX (TTMTR)
Decay date: 1968-06-12
Your satellite tracking list
Your tracking list is empty




NASA's NSSDC Master Catalog

Two Line Element Set (TLE):
1 03276U 68046  A 68162.82213196  .00255035 +00000-0 +00000-0 0  9997
2 03276 051.7972 329.0155 0038428 041.6752 318.7088 16.19167759001060
Source of the keplerian elements: AFSPC